RH
9 10 11 10 9 10 10 11 12 10 8 11 11 11 10 8 9 14 16 22 28 31 40 46 43 52 53 62 63 65 65 65 68 76 78 78 80 76 78 76 76 75 77 69
8 9 7 7 7 8 9 11 10 8 8 10 11 10 9 8 8 10 15 17 25 27 38 45 44 41 53 61 65 64 66 70 74 77 74 75 80 76 82 73 82 76 79 77
6 5 5 6 6 8 9 9 9 9 8 8 9 11 11 8 8 8 11 15 19 24 35 44 47 43 51 61 66 63 68 69 78 82 77 78 82 83 81 77 75 80 75 76
6 5 6 6 7 6 9 6 7 6 8 11 8 14 14 8 10 9 9 12 15 20 28 41 48 47 43 58 62 64 66 72 76 80 85 83 85 77 78 82 79 76 77 81
8 7 7 7 6 6 6 5 6 6 8 9 9 11 10 9 9 8 8 9 11 18 23 39 46 49 44 50 63 73 76 76 75 80 80 86 82 85 81 80 79 75 82 74
8 8 7 8 6 6 5 5 6 6 7 11 9 9 9 10 10 9 8 8 10 14 20 35 43 46 45 46 51 61 72 75 74 87 79 82 81 74 86 76 81 79 85 76
10 10 8 7 9 7 6 6 9 11 11 12 8 9 9 9 8 7 7 7 9 12 18 29 39 42 44 46 52 59 69 74 80 80 78 72 72 70 82 84 84 84 79 85
11 13 9 8 9 10 8 6 8 15 12 13 14 12 9 6 5 6 6 7 8 9 15 22 35 38 42 45 50 57 65 72 77 82 81 81 70 69 71 72 77 80 78 76
12 14 8 8 7 8 9 10 6 9 8 9 8 7 8 6 6 6 8 9 9 10 15 21 29 35 41 45 48 55 60 66 72 78 84 83 80 84 89 81 73 70 74 83
10 14 10 8 8 8 8 6 9 9 16 15 10 15 17 10 9 9 9 10 10 11 16 21 24 29 40 43 48 53 59 61 66 86 88 85 84 82 81 87 82 77 79 79
10 11 12 10 11 11 10 12 8 7 9 14 15 21 13 15 9 9 9 11 10 12 16 20 22 26 34 41 46 51 57 65 69 78 87 87 84 86 86 86 82 75 77 77
12 13 15 12 9 8 10 10 10 13 15 11 12 14 10 11 10 8 9 11 13 13 16 19 21 26 30 38 42 49 55 61 66 76 80 81 86 88 87 81 88 73 68 76
18 18 19 16 12 18 16 14 14 11 10 17 16 16 22 20 16 21 18 14 16 18 16 17 20 24 28 35 39 43 50 57 66 72 75 81 79 83 87 85 82 85 73 62
17 16 18 20 18 15 17 17 16 17 20 17 14 14 17 21 23 22 19 16 17 18 18 17 18 22 26 30 34 39 48 54 59 67 75 77 77 82 80 86 71 87 80 72
18 22 18 17 16 15 16 16 15 18 18 22 17 15 14 13 13 17 20 29 22 22 23 23 28 25 25 30 37 40 46 51 55 60 68 74 79 81 84 87 86 77 87 78
17 26 22 24 19 17 18 16 15 14 15 15 14 14 16 33 30 16 22 32 63 42 46 44 36 36 40 42 47 50 46 53 56 57 66 73 75 82 83 84 86 86 84 80
18 20 24 27 20 19 23 17 15 15 15 18 27 29 51 60 65 91 97 58 47 61 64 66 66 69 64 50 52 56 60 55 60 62 65 71 75 79 83 87 86 88 84 82
15 18 19 22 20 29 16 16 22 21 33 30 32 46 61 60 85 84 76 73 89 58 60 64 72 78 74 61 56 66 69 70 71 66 75 75 80 81 82 85 87 87 88 82
13 17 22 27 25 19 21 44 39 43 41 38 40 38 41 41 69 80 83 64 84 82 59 51 52 70 76 74 72 70 73 81 82 81 83 82 85 86 86 88 88 88 89 88
13 16 21 24 31 32 55 51 44 34 47 67 52 37 41 43 54 81 64 78 78 69 64 54 52 58 68 72 74 77 75 80 83 84 82 82 85 89 92 90 90 88 90 90
24 26 26 22 23 46 42 38 48 51 71 58 64 62 40 42 45 49 53 56 58 60 74 61 50 57 68 72 78 83 82 78 83 83 82 84 88 91 91 89 88 89 88 87
27 29 27 26 33 52 34 30 42 41 52 45 48 59 38 39 38 40 41 50 52 56 53 59 56 48 62 67 72 70 64 42 58 82 88 89 87 89 88 87 88 91 90 89
28 28 31 30 30 38 41 38 43 46 47 50 51 44 39 37 36 38 40 40 46 52 52 56 57 52 62 66 53 73 80 50 36 44 67 76 81 84 82 84 83 87 84 84
25 35 36 45 34 36 46 43 52 56 61 59 54 52 52 49 45 42 39 38 40 42 46 48 54 59 57 56 48 39 54 54 69 51 44 44 43 43 60 69 72 66 55 52
38 36 52 47 41 55 50 58 61 65 69 70 70 67 62 58 59 55 52 60 43 42 44 46 47 52 60 64 60 50 65 77 74 74 74 75 80 70 57 65 71 87 61 56
46 56 65 68 60 71 71 74 75 81 83 86 82 80 76 72 69 70 67 66 63 59 52 46 47 50 53 57 59 67 62 54 76 74 66 60 56 60 68 65 77 65 61 56
Wind_Speed
16 11 13 16 16 17 14 9 10 11 11 4 10 13 13 16 13 15 12 19 20 20 23 22 20 29 30 30 31 29 27 25 26 25 22 19 17 17 16 12 13 13 11 14
13 16 16 17 16 15 11 12 13 11 12 6 12 15 18 15 13 18 19 15 23 18 27 26 24 24 30 30 32 32 30 26 26 26 22 21 19 20 15 17 12 16 14 14
15 18 6 6 13 16 11 12 13 13 12 14 18 20 20 15 22 11 20 19 21 23 31 30 28 27 31 34 33 36 33 31 28 24 21 22 19 18 18 18 18 16 16 20
13 13 15 12 12 15 13 14 13 8 10 11 15 12 17 13 13 13 14 21 18 22 26 33 29 27 26 35 27 29 30 32 32 29 24 23 24 23 21 18 21 20 17 19
14 14 11 13 14 12 15 12 12 12 12 14 17 10 15 12 7 9 10 14 20 23 24 34 30 27 26 26 30 31 32 31 30 28 28 27 25 18 18 18 17 19 21 17
18 18 11 11 10 10 10 16 12 14 13 13 20 15 12 11 12 9 14 11 17 21 24 35 31 28 27 26 27 28 31 31 28 29 30 28 24 23 21 19 22 22 20 19
19 20 17 16 11 14 9 11 10 11 11 10 1 3 5 13 9 7 9 13 14 18 23 32 33 32 28 28 27 28 31 31 30 33 29 30 26 25 22 22 21 20 24 20
14 7 14 14 11 13 11 12 11 16 12 4 10 7 3 2 4 6 11 9 15 16 23 27 32 32 30 30 29 29 30 33 31 32 29 27 30 26 25 26 26 22 19 22
13 10 6 3 3 9 12 12 17 16 16 13 12 11 8 10 7 9 4 3 15 16 22 26 29 30 33 31 31 31 31 30 28 30 29 28 25 27 22 19 20 22 22 19
10 9 9 13 6 10 9 12 12 8 9 11 10 10 7 7 6 6 6 7 13 16 23 26 27 28 32 31 32 31 31 31 25 27 29 29 26 25 24 23 23 20 20 19
12 11 14 5 8 12 10 11 10 13 11 12 8 2 1 7 6 4 6 4 18 19 23 25 27 28 30 29 31 32 32 29 28 26 28 25 24 24 23 27 23 21 24 19
12 9 12 17 17 10 14 12 13 8 10 11 12 10 4 2 9 4 6 7 2 25 26 26 28 29 30 31 31 33 33 32 32 28 30 28 27 24 23 24 26 23 22 27
12 8 9 13 10 17 14 18 18 16 16 15 11 9 15 13 24 32 31 14 9 7 26 27 29 30 30 31 31 30 33 33 32 28 29 31 29 28 27 25 26 27 19 28
7 12 15 14 21 18 9 10 17 18 14 16 15 17 3 16 10 3 31 3 14 11 10 23 27 30 32 30 32 30 31 31 30 29 32 32 32 30 28 29 23 26 22 19
5 14 15 18 21 22 22 22 18 18 21 19 23 22 18 18 5 10 6 21 25 12 7 6 4 13 29 25 25 29 23 28 30 29 32 32 31 30 28 26 26 22 27 23
13 13 16 19 21 22 25 22 23 22 20 24 24 24 17 35 38 18 22 18 15 17 10 10 7 7 11 12 13 19 28 18 25 29 31 31 32 32 31 29 28 28 25 25
13 12 13 17 18 20 19 20 22 23 19 20 14 15 20 20 27 37 43 36 19 13 11 14 10 10 7 7 11 16 16 26 21 23 28 30 30 31 33 30 31 30 28 25
11 11 10 13 15 18 16 15 24 21 14 16 12 19 14 12 14 41 40 49 64 37 22 20 17 15 10 4 9 11 14 19 17 26 22 25 26 29 28 32 32 31 30 26
7 6 7 8 12 18 13 31 26 21 19 16 14 10 18 21 10 29 30 14 36 38 32 20 16 17 18 10 9 6 8 11 14 17 19 23 24 26 26 29 30 30 28 26
9 6 7 11 13 17 8 18 34 33 8 29 36 15 15 17 8 4 16 13 16 14 27 24 20 14 16 17 10 5 5 5 9 12 15 18 19 21 22 24 27 27 26 23
7 9 11 11 13 7 8 14 12 7 7 22 21 39 20 13 10 9 12 11 16 18 10 21 18 17 13 10 8 9 7 1 4 9 10 12 14 17 19 21 24 26 25 23
5 7 7 7 12 5 4 9 6 6 10 8 9 18 21 20 20 17 15 10 13 12 14 9 15 15 10 8 5 5 2 3 3 3 3 8 12 15 16 21 23 22 21 21
1 7 7 6 9 13 18 19 20 24 23 24 29 29 28 27 24 24 22 22 13 10 12 9 8 10 5 3 5 1 6 9 5 4 7 6 4 6 9 11 15 13 13 17
3 16 6 10 12 22 23 20 25 26 30 30 29 29 30 32 32 31 28 26 25 19 17 15 12 14 17 9 7 9 7 9 7 8 7 7 9 8 15 15 17 22 17 19
8 11 12 13 14 32 23 30 30 30 31 29 29 30 31 31 32 34 33 34 26 26 22 21 19 17 15 12 14 19 14 12 13 12 9 8 11 9 6 10 12 16 16 14
6 5 5 8 22 16 28 29 27 28 28 29 31 33 30 29 32 30 31 34 35 29 27 27 26 24 20 19 18 17 19 20 16 15 15 13 12 17 9 9 9 11 9 9
Wind_Direction
227 235 241 246 248 259 294 325 296 287 281 294 291 286 279 275 213 191 225 180 178 186 181 180 196 187 185 188 192 195 200 206 209 211 207 205 206 209 206 219 212 224 203 204
247 232 242 257 277 280 314 294 278 281 267 299 275 291 280 262 253 206 190 214 184 188 173 177 186 192 187 189 196 195 205 205 208 214 223 219 210 207 204 209 213 236 210 206
239 258 233 297 273 275 255 269 288 296 314 304 276 262 260 282 210 242 190 202 198 190 173 175 183 197 193 192 200 198 202 206 204 210 222 210 217 207 210 219 213 227 233 202
261 256 274 253 271 271 279 277 278 318 301 282 313 302 274 250 175 185 213 206 201 190 179 175 182 192 198 197 205 204 206 208 215 212 208 209 207 211 212 217 215 224 233 220
270 257 241 270 267 274 278 302 313 306 280 284 275 263 280 161 187 182 193 231 203 190 187 173 180 188 197 194 191 196 203 208 217 218 210 213 215 212 207 215 224 219 229 239
275 275 266 272 280 260 279 272 274 270 257 260 255 240 276 161 142 160 175 197 210 192 186 173 177 183 196 195 195 199 212 216 217 213 215 216 215 209 215 214 222 216 225 237
238 233 232 241 249 268 252 256 258 245 234 252 249 174 236 135 163 183 189 192 187 196 181 171 172 179 190 193 195 201 211 217 220 218 219 220 218 209 216 216 217 220 215 229
284 349 195 189 216 268 223 253 266 295 309 315 293 281 197 210 96 129 236 230 187 196 179 176 174 181 186 192 195 200 209 217 222 221 221 223 221 218 219 227 220 228 223 218
299 45 127 227 279 215 253 254 252 282 292 285 281 256 354 180 170 222 5 290 162 188 170 172 176 181 183 190 199 202 210 219 220 214 215 223 222 220 220 235 233 231 221 221
294 294 295 142 200 235 253 279 271 243 261 266 266 62 40 47 75 54 268 186 160 179 163 171 179 182 184 193 200 201 209 222 222 209 215 220 223 223 211 220 228 228 218 224
309 297 287 239 218 263 191 225 236 273 291 301 282 104 129 347 311 291 262 223 173 170 167 172 178 183 186 194 198 205 204 214 219 210 212 216 222 225 224 213 232 233 214 217
307 311 291 290 311 277 279 293 289 251 246 249 279 297 46 218 316 247 253 182 263 168 172 175 180 185 188 194 198 205 204 207 219 214 206 217 216 214 227 220 218 237 225 214
353 296 293 278 278 13 330 337 339 306 284 277 260 262 93 352 332 331 326 155 196 208 178 180 182 189 193 194 199 205 208 207 213 212 211 212 217 217 213 230 213 234 233 217
332 285 282 285 300 315 293 294 292 305 304 307 298 312 240 161 154 226 310 174 174 200 194 188 188 188 194 201 200 205 208 206 208 216 213 213 219 220 217 220 224 220 238 231
271 269 285 297 303 307 304 301 288 276 290 299 302 301 304 308 278 228 345 332 307 172 158 186 183 196 190 191 203 203 205 206 207 213 215 217 219 219 222 218 231 223 224 241
325 309 312 304 299 296 293 287 288 287 270 272 281 288 347 13 5 230 202 182 309 68 65 69 90 105 140 173 184 201 207 205 208 211 216 212 218 217 219 222 225 234 231 232
292 294 301 292 302 300 291 296 303 308 304 302 332 349 16 11 11 13 3 4 183 155 65 61 47 52 64 187 213 211 210 209 213 211 213 214 221 223 221 222 224 229 235 235
278 284 281 287 291 275 290 352 360 339 36 7 3 43 27 350 8 24 1 10 318 73 68 55 53 46 58 55 189 197 209 214 215 212 211 209 220 226 229 224 226 227 234 232
329 290 321 310 291 291 0 15 359 354 341 12 354 360 3 353 40 29 22 359 320 1 7 27 43 51 55 47 86 144 181 200 215 218 213 215 219 230 233 228 227 228 230 232
317 302 277 289 293 292 27 358 336 332 325 7 339 353 2 349 8 30 8 348 350 358 7 356 15 31 50 51 62 124 160 194 216 220 226 226 227 230 232 232 232 230 230 227
334 326 291 295 305 92 24 340 316 298 311 340 337 327 344 346 357 334 336 335 6 354 351 340 1 5 10 56 48 61 48 27 236 237 230 232 229 225 227 230 232 233 229 229
313 325 301 334 331 3 321 345 321 315 249 278 276 293 309 315 318 328 332 330 326 328 334 335 330 343 344 358 72 15 53 342 274 250 257 232 231 230 234 237 237 238 233 232
249 6 317 324 318 36 7 335 351 347 340 333 329 327 316 310 302 310 314 311 301 303 302 308 291 283 304 323 354 93 295 301 275 256 203 202 200 201 210 239 235 229 241 245
352 33 321 352 340 334 343 329 338 330 324 318 311 309 304 305 309 310 305 298 299 298 290 288 278 266 265 248 250 276 266 269 263 264 253 271 273 256 236 241 249 263 268 265
14 325 350 311 322 333 325 319 316 317 316 314 308 305 305 304 301 299 299 308 295 291 291 285 289 285 286 274 288 256 232 231 253 254 256 254 270 281 290 285 269 257 280 264
30 17 336 308 316 315 306 312 314 312 310 309 312 308 300 297 294 292 291 296 298 298 291 280 280 280 279 279 282 279 273 244 242 251 262 265 255 256 245 265 270 290 274 261